Weather History for McCall, ID

Change the Weather History Date:

Thursday, December 18, 2014

  Actual Average Record
Temperature  
Mean Temperature 32 °F 18 °F  
Max Temperature 34 °F 27 °F 48 °F (1979)
Min Temperature 30 °F 9 °F -15 °F (1945)
Degree Days  
Heating Degree Days 33 47  
Month to date heating degree days 599 824  
Since 1 July heating degree days 2663 3462  
Cooling Degree Days 0 0  
Month to date cooling degree days 0 0  
Year to date cooling degree days 185 25  
Moisture  
Dew Point 30 °F    
Average Humidity 93    
Maximum Humidity 100    
Minimum Humidity 85    
Precipitation  
Precipitation 0.04 in 0.08 in 0.97 in (1951)
Month to date precipitation 1.45 1.08  
Year to date precipitation 23.95 19.12  
Sea Level Pressure  
Sea Level Pressure 30.04 in    
Wind  
Wind Speed 5 mph (SSE)    
Max Wind Speed 13 mph    
Max Gust Speed 16 mph    
Visibility 7 miles    
Events Snow    
T = Trace of Precipitation, MM = Missing Value Source: NWS Daily Summary

Daily Weather History Graph

Daily Weather History Graph

Search for Another Location

Airport:

Trip Planner

Search our weather history database for the weather conditions in past years. The results will help you decide how hot, cold, wet, or windy it might be!

Date:

Astronomy

Dec. 18, 2014 Rise Set
Actual Time 8:17 AM MST 5:04 PM MST
Civil Twilight 7:43 AM MST 5:38 PM MST
Nautical Twilight 7:06 AM MST 6:15 PM MST
Astronomical Twilight 6:30 AM MST 6:51 PM MST
Moon 4:28 AM MST (12/18) 2:54 PM MST (12/18)
Length of Visible Light 9h 54m
Length of Day
8h 47m
Waning Crescent, 13% of the Moon is Illuminated
Dec 18
Waning Crescent
Dec 21
New
Dec 28
First Quarter
Jan 4
Full
Jan 13
Last Quarter

Hourly Weather History & Observations

Time (MST) Temp. Windchill Dew Point Humidity Pressure Visibility Wind Dir Wind Speed Gust Speed Precip Events Conditions
12:01 AM 30.9 °F - 28.9 °F 92% 29.98 in 2.5 mi Calm Calm - 0.00 in Snow Light Snow
12:16 AM 30.9 °F 27.5 °F 28.9 °F 92% 29.98 in 1.0 mi East 3.5 mph - 0.01 in Snow Light Snow
12:22 AM 30.9 °F - 28.9 °F 92% 29.97 in 1.0 mi Calm Calm - 0.01 in Snow Light Snow
12:27 AM 30.9 °F 27.5 °F 28.9 °F 92% 29.97 in 1.2 mi ENE 3.5 mph - 0.02 in Snow Light Snow
12:37 AM 30.9 °F 27.5 °F 30.0 °F 96% 29.97 in 2.5 mi ENE 3.5 mph - 0.02 in Snow Light Snow
12:43 AM 30.9 °F 27.5 °F 30.0 °F 96% 29.97 in 4.0 mi NNE 3.5 mph - 0.02 in Snow Light Snow
12:51 AM 30.9 °F - 28.9 °F 92% 30.03 in 8.0 mi Calm Calm - 0.02 in Snow Light Snow
1:05 AM 30.9 °F - 28.9 °F 92% 29.97 in 10.0 mi Calm Calm - 0.00 in   Overcast
1:20 AM 30.0 °F - 28.9 °F 96% 29.97 in 9.0 mi Calm Calm - 0.00 in   Overcast
1:28 AM 30.0 °F - 28.9 °F 96% 29.97 in 7.0 mi Calm Calm - 0.00 in   Overcast
1:51 AM 30.9 °F 27.5 °F 28.9 °F 92% 30.03 in 10.0 mi SE 3.5 mph - 0.00 in   Overcast
1:59 AM 32.0 °F - 28.9 °F 88% 29.98 in 10.0 mi Calm Calm - N/A   Overcast
2:28 AM 30.9 °F - 30.0 °F 96% 29.97 in 10.0 mi Calm Calm - N/A   Overcast
2:41 AM 30.9 °F 27.5 °F 30.0 °F 96% 29.98 in 10.0 mi NW 3.5 mph - N/A   Overcast
2:51 AM 30.9 °F 27.5 °F 30.0 °F 96% 30.04 in 10.0 mi West 3.5 mph - N/A   Overcast
3:11 AM 30.9 °F - 30.0 °F 96% 29.98 in 10.0 mi Calm Calm - N/A   Overcast
3:51 AM 30.9 °F - 28.9 °F 92% 30.04 in 9.0 mi Calm Calm - 0.00 in Snow Light Snow
4:51 AM 32.0 °F 26.4 °F 28.9 °F 88% 30.05 in 10.0 mi SSE 5.8 mph - 0.00 in   Overcast
5:51 AM 32.0 °F 27.5 °F 28.9 °F 88% 30.05 in 9.0 mi South 4.6 mph - 0.00 in Snow Light Snow
6:51 AM 30.9 °F 27.5 °F 28.9 °F 92% 30.07 in 10.0 mi SSE 3.5 mph - 0.00 in   Overcast
7:51 AM 32.0 °F 25.6 °F 28.9 °F 88% 30.07 in 9.0 mi SSE 6.9 mph - 0.00 in   Overcast
8:51 AM 32.0 °F 26.4 °F 28.9 °F 88% 30.07 in 9.0 mi SSE 5.8 mph - 0.00 in Snow Light Snow
9:51 AM 32.0 °F 24.2 °F 28.9 °F 88% 30.08 in 10.0 mi SSE 9.2 mph - 0.00 in   Overcast
10:06 AM 32.0 °F 24.8 °F 30.0 °F 92% 30.03 in 1.8 mi SSE 8.1 mph - 0.00 in Snow Light Snow
10:35 AM 32.0 °F 23.6 °F 30.0 °F 92% 30.03 in 3.0 mi SSE 10.4 mph - 0.01 in Snow Light Snow
10:51 AM 32.0 °F 23.0 °F 30.0 °F 92% 30.10 in 4.0 mi SSE 11.5 mph - 0.01 in Snow Light Snow
11:14 AM 32.0 °F 23.0 °F 30.0 °F 92% 30.04 in 2.5 mi SSE 11.5 mph - 0.00 in Snow Light Snow
11:30 AM 32.0 °F 23.6 °F 30.0 °F 92% 30.04 in 1.8 mi SSE 10.4 mph - 0.01 in Snow Light Snow
11:51 AM 32.0 °F 24.8 °F 30.9 °F 96% 30.10 in 2.0 mi SSE 8.1 mph - 0.01 in Snow Light Snow
12:19 PM 33.1 °F 25.5 °F 30.0 °F 89% 30.03 in 3.0 mi SSE 9.2 mph - 0.00 in Snow Light Snow
12:51 PM 33.1 °F 26.1 °F 30.9 °F 92% 30.09 in 9.0 mi SSE 8.1 mph - 0.00 in Snow Light Snow
1:22 PM 33.1 °F 25.5 °F 30.9 °F 92% 30.02 in 10.0 mi SSE 9.2 mph - 0.00 in   Overcast
1:51 PM 33.1 °F 27.7 °F 30.9 °F 92% 30.08 in 10.0 mi SSE 5.8 mph - 0.00 in Snow Light Snow
2:51 PM 34.0 °F 27.2 °F 30.0 °F 85% 30.07 in 10.0 mi SSE 8.1 mph - 0.00 in   Overcast
2:57 PM 34.0 °F 28.0 °F 30.0 °F 85% 30.01 in 10.0 mi SE 6.9 mph - N/A   Overcast
3:25 PM 34.0 °F 29.8 °F 30.9 °F 89% 30.02 in 10.0 mi SSE 4.6 mph - N/A   Overcast
3:51 PM 33.1 °F 26.9 °F 30.9 °F 92% 30.09 in 10.0 mi South 6.9 mph - N/A   Overcast
4:51 PM 33.1 °F 27.7 °F 30.9 °F 92% 30.09 in 9.0 mi South 5.8 mph - 0.00 in   Overcast
5:07 PM 33.1 °F 27.7 °F 30.9 °F 92% 30.03 in 5.0 mi SSE 5.8 mph - 0.00 in Snow Light Snow
5:34 PM 32.0 °F 26.4 °F 30.9 °F 96% 30.03 in 6.0 mi SE 5.8 mph - 0.00 in Snow Light Snow
5:51 PM 33.1 °F 26.9 °F 30.9 °F 92% 30.09 in 10.0 mi ESE 6.9 mph - 0.00 in   Overcast
6:51 PM 32.0 °F 27.5 °F 30.9 °F 96% 30.09 in 4.0 mi South 4.6 mph - 0.00 in Snow Light Snow
7:07 PM 32.0 °F 26.4 °F 30.9 °F 96% 30.03 in 4.0 mi SSE 5.8 mph - 0.00 in Snow Light Snow
7:51 PM 32.0 °F 28.7 °F 30.9 °F 96% 30.09 in 10.0 mi SSE 3.5 mph - 0.00 in   Overcast
8:21 PM 32.0 °F 28.7 °F 30.0 °F 92% 30.03 in 10.0 mi SSE 3.5 mph - N/A   Overcast
8:51 PM 32.0 °F - 30.9 °F 96% 30.09 in 10.0 mi Calm Calm - N/A   Overcast
9:51 PM 32.0 °F - 30.0 °F 92% 30.09 in 10.0 mi Calm Calm - N/A   Overcast
10:22 PM 33.1 °F 28.7 °F 30.0 °F 89% 30.03 in 10.0 mi SSE 4.6 mph - N/A   Overcast
10:43 PM 33.1 °F - 30.9 °F 92% 30.03 in 10.0 mi Calm Calm - N/A   Overcast
10:51 PM 32.0 °F - 30.0 °F 92% 30.10 in 10.0 mi Calm Calm - N/A   Overcast
11:51 PM 33.1 °F - 30.0 °F 89% 30.09 in 8.0 mi Calm Calm - N/A   Overcast